Hourly Weather Caxias do Sul

Today, 12 June, Saturday

Time Temperature Precipitation Wind Pressure Humidity
00:00 +5°C° 0 mm 0 mps 696 mmHg 97%
01:00 +5°C° 0 mm 0 mps 696 mmHg 97%
02:00 +4°C° 0 mm 0 mps 696 mmHg 96%
03:00 +4°C° 0 mm 0 mps 696 mmHg 96%
04:00 +5°C° 0 mm 1 mps 696 mmHg 95%
05:00 +5°C° 0 mm 1 mps 696 mmHg 95%
06:00 +4°C° 0 mm 1 mps 696 mmHg 94%
07:00 +6°C° 0 mm 1 mps 696 mmHg 87%
08:00 +7°C° 0 mm 1 mps 697 mmHg 80%
09:00 +8°C° 0 mm 1 mps 697 mmHg 74%
10:00 +10°C° 0 mm 1 mps 697 mmHg 64%
11:00 +12°C° 0 mm 1 mps 697 mmHg 53%
12:00 +14°C° 0 mm 1 mps 697 mmHg 43%
13:00 +15°C° 0 mm 1 mps 697 mmHg 44%
14:00 +15°C° 0 mm 1 mps 697 mmHg 45%
15:00 +15°C° 0 mm 1 mps 697 mmHg 46%
16:00 +13°C° 0 mm 1 mps 696 mmHg 56%
17:00 +11°C° 0 mm 1 mps 696 mmHg 67%
18:00 +8°C° 0 mm 0 mps 696 mmHg 78%
19:00 +7°C° 0 mm 0 mps 696 mmHg 79%
20:00 +7°C° 0 mm 0 mps 697 mmHg 81%
21:00 +7°C° 0 mm 1 mps 697 mmHg 82%
22:00 +7°C° 0 mm 1 mps 697 mmHg 83%
23:00 +7°C° 0 mm 1 mps 697 mmHg 85%

Tomorrow, 13 June, Sunday

Time Temperature Precipitation Wind Pressure Humidity
00:00 +7°C° 0 mm 1 mps 697 mmHg 86%
01:00 +6°C° 0 mm 1 mps 697 mmHg 87%
02:00 +6°C° 0 mm 1 mps 697 mmHg 88%
03:00 +6°C° 0 mm 1 mps 697 mmHg 88%
04:00 +6°C° 0 mm 1 mps 697 mmHg 88%
05:00 +6°C° 0 mm 1 mps 697 mmHg 89%
06:00 +6°C° 0 mm 1 mps 697 mmHg 89%
07:00 +7°C° 0 mm 1 mps 698 mmHg 82%
08:00 +9°C° 0 mm 1 mps 698 mmHg 76%
09:00 +10°C° 0 mm 0 mps 698 mmHg 69%
10:00 +12°C° 0 mm 0 mps 699 mmHg 62%
11:00 +15°C° 0 mm 0 mps 699 mmHg 54%
12:00 +17°C° 0 mm 0 mps 699 mmHg 47%
13:00 +17°C° 0 mm 0 mps 699 mmHg 47%
14:00 +18°C° 0 mm 0 mps 698 mmHg 48%
15:00 +20°C° 0 mm 1 mps 698 mmHg 48%
16:00 +18°C° 0 mm 1 mps 698 mmHg 62%
17:00 +13°C° 0 mm 0 mps 697 mmHg 75%
18:00 +10°C° 0 mm 0 mps 697 mmHg 89%
19:00 +11°C° 0 mm 1 mps 697 mmHg 90%
20:00 +10°C° 0 mm 1 mps 698 mmHg 92%
21:00 +10°C° 0 mm 1 mps 698 mmHg 93%
22:00 +10°C° 0 mm 1 mps 698 mmHg 93%
23:00 +9°C° 0 mm 1 mps 697 mmHg 93%

Day after tomorrow, 14 June, Monday

Time Temperature Precipitation Wind Pressure Humidity
00:00 +9°C° 0 mm 1 mps 697 mmHg 93%
01:00 +9°C° 0 mm 1 mps 697 mmHg 94%
02:00 +8°C° 0 mm 1 mps 697 mmHg 94%
03:00 +8°C° 0 mm 1 mps 697 mmHg 94%
04:00 +8°C° 0 mm 1 mps 697 mmHg 94%
05:00 +8°C° 0 mm 1 mps 697 mmHg 94%
06:00 +7°C° 0 mm 1 mps 697 mmHg 93%
07:00 +9°C° 0 mm 1 mps 697 mmHg 87%
08:00 +10°C° 0 mm 1 mps 697 mmHg 80%
09:00 +12°C° 0 mm 1 mps 698 mmHg 74%
10:00 +14°C° 0 mm 1 mps 698 mmHg 66%
11:00 +18°C° 0 mm 1 mps 698 mmHg 58%
12:00 +20°C° 0 mm 1 mps 698 mmHg 50%
13:00 +20°C° 0 mm 1 mps 698 mmHg 50%
14:00 +21°C° 0 mm 1 mps 698 mmHg 50%
15:00 +21°C° 0 mm 1 mps 697 mmHg 50%
16:00 +19°C° 0 mm 1 mps 697 mmHg 63%
17:00 +14°C° 0 mm 0 mps 697 mmHg 76%
18:00 +12°C° 0 mm 0 mps 696 mmHg 89%
19:00 +11°C° 0 mm 0 mps 697 mmHg 91%
20:00 +10°C° 0 mm 0 mps 697 mmHg 94%
21:00 +10°C° 0 mm 0 mps 697 mmHg 96%
22:00 +10°C° 0 mm 0 mps 697 mmHg 97%
23:00 +9°C° 0 mm 0 mps 697 mmHg 97%

15 June, Tuesday

Time Temperature Precipitation Wind Pressure Humidity
00:00 +9°C° 0 mm 0 mps 697 mmHg 97%
01:00 +9°C° 0 mm 0 mps 697 mmHg 97%
02:00 +9°C° 0 mm 0 mps 697 mmHg 98%
03:00 +8°C° 0 mm 0 mps 697 mmHg 98%
04:00 +8°C° 0 mm 0 mps 696 mmHg 98%
05:00 +8°C° 0 mm 0 mps 696 mmHg 98%
06:00 +8°C° 0 mm 0 mps 696 mmHg 98%
07:00 +9°C° 0 mm 0 mps 697 mmHg 97%
08:00 +9°C° 0 mm 0 mps 697 mmHg 95%
09:00 +10°C° 0 mm 0 mps 698 mmHg 93%
10:00 +12°C° 0 mm 1 mps 698 mmHg 91%
11:00 +12°C° 0 mm 1 mps 698 mmHg 89%
12:00 +12°C° 0 mm 1 mps 698 mmHg 87%
13:00 +12°C° 0.1 mm 1 mps 698 mmHg 88%
14:00 +12°C° 0.1 mm 1 mps 698 mmHg 88%
15:00 +12°C° 0.1 mm 1 mps 697 mmHg 89%
16:00 +11°C° 0 mm 1 mps 697 mmHg 91%
17:00 +11°C° 0 mm 1 mps 697 mmHg 93%
18:00 +10°C° 0 mm 1 mps 698 mmHg 96%
19:00 +10°C° 0 mm 1 mps 698 mmHg 96%
20:00 +9°C° 0 mm 1 mps 698 mmHg 96%
21:00 +9°C° 0 mm 1 mps 698 mmHg 97%
22:00 +9°C° 0 mm 1 mps 698 mmHg 97%
23:00 +9°C° 0 mm 1 mps 698 mmHg 97%

16 June, Wednesday

Time Temperature Precipitation Wind Pressure Humidity
00:00 +8°C° 0 mm 1 mps 698 mmHg 97%
01:00 +8°C° 0 mm 1 mps 698 mmHg 96%
02:00 +8°C° 0 mm 1 mps 698 mmHg 95%
03:00 +7°C° 0 mm 1 mps 698 mmHg 94%
04:00 +7°C° 0 mm 1 mps 698 mmHg 94%
05:00 +7°C° 0 mm 1 mps 698 mmHg 93%
06:00 +7°C° 0 mm 1 mps 698 mmHg 93%
07:00 +7°C° 0 mm 1 mps 698 mmHg 89%
08:00 +7°C° 0 mm 1 mps 698 mmHg 86%
09:00 +7°C° 0 mm 1 mps 699 mmHg 83%
10:00 +8°C° 0 mm 1 mps 699 mmHg 75%
11:00 +8°C° 0 mm 2 mps 699 mmHg 67%
12:00 +9°C° 0 mm 2 mps 699 mmHg 59%
13:00 +9°C° 0 mm 2 mps 699 mmHg 58%
14:00 +9°C° 0 mm 2 mps 698 mmHg 58%
15:00 +10°C° 0 mm 2 mps 698 mmHg 57%
16:00 +8°C° 0 mm 2 mps 698 mmHg 68%
17:00 +7°C° 0 mm 1 mps 698 mmHg 78%
18:00 +5°C° 0 mm 1 mps 698 mmHg 88%
19:00 +5°C° 0 mm 1 mps 698 mmHg 90%
20:00 +4°C° 0 mm 1 mps 698 mmHg 92%
21:00 +3°C° 0 mm 1 mps 698 mmHg 94%
22:00 +3°C° 0 mm 1 mps 698 mmHg 93%
23:00 +3°C° 0 mm 1 mps 698 mmHg 92%

17 June, Thursday

Time Temperature Precipitation Wind Pressure Humidity
00:00 +3°C° 0 mm 1 mps 698 mmHg 91%
01:00 +3°C° 0 mm 1 mps 698 mmHg 90%
02:00 +3°C° 0 mm 1 mps 697 mmHg 90%
03:00 +4°C° 0 mm 1 mps 697 mmHg 90%
04:00 +4°C° 0 mm 1 mps 697 mmHg 89%
05:00 +4°C° 0 mm 0 mps 697 mmHg 88%
06:00 +5°C° 0 mm 0 mps 697 mmHg 87%
07:00 +6°C° 0 mm 0 mps 697 mmHg 87%
08:00 +6°C° 0 mm 0 mps 697 mmHg 86%
09:00 +7°C° 0 mm 0 mps 697 mmHg 86%
10:00 +8°C° 0 mm 0 mps 697 mmHg 81%
11:00 +9°C° 0 mm 0 mps 697 mmHg 77%
12:00 +11°C° 0 mm 0 mps 697 mmHg 72%
13:00 +11°C° 0 mm 0 mps 697 mmHg 75%
14:00 +11°C° 0 mm 0 mps 697 mmHg 78%
15:00 +12°C° 0 mm 1 mps 696 mmHg 81%
16:00 +10°C° 0.3 mm 0 mps 696 mmHg 87%
17:00 +9°C° 0.3 mm 0 mps 696 mmHg 92%
18:00 +8°C° 0.3 mm 0 mps 696 mmHg 98%
19:00 +8°C° 0.5 mm 0 mps 696 mmHg 98%
20:00 +7°C° 0.5 mm 0 mps 696 mmHg 99%
21:00 +7°C° 0.5 mm 0 mps 697 mmHg 99%
22:00 +7°C° 0.2 mm 0 mps 696 mmHg 99%
23:00 +7°C° 0.2 mm 0 mps 696 mmHg 99%
Show more

We Need Your Consent

Meteoprog and our Service Providers may store and access personal data such as cookies, device identifiers or other similar technologies on your device and process such data to personalise content and ads, as well as provide social media features and to analyse the traffic.

  • Store and/or access information on your device

    Cookies, device identifiers or other information can be stored or accessed on your device for the purposes indicated above.

  • Personalised ads and content, ad and content measurement, audience insights, and products development

    Ads and content can be personalised based on a profile. More data can be added to better personalise ads and content. Ad and content performance can be measured. Insights about the audience who saw the ads and content can be derived. Such data can be used to develop or improve user’s experience, systems and software.

By clicking ‘I Agree’ you will allow the use of indicated cookies, device identifiers, web beacons or other similar technologies. Your settings can be changed in the browser on your device.

For certain purposes, legitimate interests may be relied on, rather than consent. You can read more about this in our Privacy and Cookie Policy.